This is the latest recevied weather packets stored in our database for station/object KO4ZGL-13. If no packets are shown the sender has not sent any weather packets the latest 10 day(s).
| Time | Temp. | Humidity | Pressure | Rain* | Wind** | Luminosity | Snow |
|---|---|---|---|---|---|---|---|
| 1787577442 | 27.22° C | 99% | 1015.4 hPa | 0 mm | - | 356 W/m² | - |
| 1787577139 | 27.22° C | 99% | 1015.5 hPa | 0 mm | - | 150 W/m² | - |
| 1787576835 | 26.67° C | 99% | 1015.6 hPa | 0 mm | - | 177 W/m² | - |
| 1787576530 | 26.67° C | 99% | 1015.7 hPa | 0 mm | - | 180 W/m² | - |
| 1787576226 | 26.67° C | 99% | 1015.8 hPa | 0 mm | - | 161 W/m² | - |
| 1787575921 | 26.11° C | 99% | 1015.7 hPa | 0 mm | - | 113 W/m² | - |
| 1787575616 | 26.11° C | 99% | 1015.5 hPa | 0 mm | - | 81 W/m² | - |
| 1787575312 | 26.11° C | 99% | 1015.4 hPa | 0 mm | - | 75 W/m² | - |
| 1787575006 | 26.11° C | 99% | 1015.6 hPa | 0 mm | - | 69 W/m² | - |
| 1787574702 | 26.11° C | 99% | 1015.2 hPa | 0 mm | - | 62 W/m² | - |
| 1787574397 | 26.11° C | 99% | 1015.5 hPa | 0 mm | - | 58 W/m² | - |
| 1787574095 | 26.11° C | 99% | 1015.4 hPa | 0 mm | - | 52 W/m² | - |
| 1787573790 | 25.56° C | 99% | 1015.2 hPa | 0 mm | - | 51 W/m² | - |
| 1787573490 | 25.56° C | 99% | 1015.1 hPa | 0 mm | - | 55 W/m² | - |
| 1787573186 | 25.56° C | 99% | 1014.9 hPa | 0 mm | - | 52 W/m² | - |
| 1787572882 | 25.56° C | 99% | 1015.1 hPa | 0 mm | - | 47 W/m² | - |
| 1787572578 | 25.56° C | 99% | 1015 hPa | 0 mm | - | 42 W/m² | - |
| 1787572277 | 25.56° C | 99% | 1015 hPa | 0 mm | - | 39 W/m² | - |
| 1787571972 | 25.56° C | 99% | 1014.9 hPa | 0 mm | - | 42 W/m² | - |
| 1787571671 | 25.56° C | 99% | 1014.9 hPa | 0 mm | - | 43 W/m² | - |
| 1787571370 | 25.56° C | 99% | 1014.8 hPa | 0 mm | - | 29 W/m² | - |
| 1787571066 | 25.56° C | 99% | 1014.8 hPa | 0 mm | - | 26 W/m² | - |
| 1787570762 | 25.56° C | 99% | 1014.7 hPa | 0 mm | - | 21 W/m² | - |
| 1787570457 | 25.56° C | 99% | 1014.7 hPa | 0 mm | - | 18 W/m² | - |
| 1787570154 | 25° C | 99% | 1014.6 hPa | 0 mm | - | 14 W/m² | - |
* Rain latest hour (hover to see other rain measurements)
** Current wind speed in m/s (hover to see current wind gust speed)